Time,TemperatureF,DewpointF,PressureIn,WindDirection,WindDirectionDegrees,WindSpeedMPH,WindSpeedGustMPH,Humidity,HourlyPrecipIn,Conditions,Clouds,dailyrainin,SoftwareType,DateUTC
2013-08-08 00:01:00,70.8,68.4,29.94,NW,312,0.0,0.0,92,0.00,,,0.00,Wunderground v.1.15,2013-08-08 04:01:00,
2013-08-08 00:08:00,70.6,68.2,29.94,NW,312,0.0,0.0,92,0.00,,,0.00,Wunderground v.1.15,2013-08-08 04:08:00,
2013-08-08 00:11:00,70.6,68.2,29.94,NW,312,0.0,0.0,92,0.00,,,0.00,Wunderground v.1.15,2013-08-08 04:11:00,
2013-08-08 00:15:00,70.6,68.2,29.93,NW,304,0.0,0.0,92,0.00,,,0.00,Wunderground v.1.15,2013-08-08 04:15:00,
2013-08-08 00:16:00,70.6,68.2,29.93,NW,309,0.0,0.0,92,0.00,,,0.00,Wunderground v.1.15,2013-08-08 04:16:00,
2013-08-08 00:21:00,70.6,68.2,29.93,WNW,301,0.0,0.0,92,0.00,,,0.00,Wunderground v.1.15,2013-08-08 04:21:00,
2013-08-08 00:27:00,70.6,68.2,29.93,NW,308,0.0,0.0,92,0.00,,,0.00,Wunderground v.1.15,2013-08-08 04:27:00,
2013-08-08 00:35:00,70.6,68.2,29.94,SSW,205,0.0,0.0,92,0.00,,,0.00,Wunderground v.1.15,2013-08-08 04:35:00,
2013-08-08 00:41:00,70.8,68.7,29.94,SSW,203,0.0,0.0,93,0.00,,,0.00,Wunderground v.1.15,2013-08-08 04:41:00,
2013-08-08 00:47:00,70.8,68.7,29.94,SSW,202,0.0,0.0,93,0.00,,,0.00,Wunderground v.1.15,2013-08-08 04:47:00,
2013-08-08 00:55:00,70.8,68.7,29.94,SSW,198,0.0,0.0,93,0.00,,,0.00,Wunderground v.1.15,2013-08-08 04:55:00,
2013-08-08 01:00:00,70.9,68.8,29.94,SSW,200,0.0,0.0,93,0.00,,,0.00,Wunderground v.1.15,2013-08-08 05:00:00,
2013-08-08 01:05:00,70.9,68.8,29.94,SSW,203,0.0,0.0,93,0.00,,,0.00,Wunderground v.1.15,2013-08-08 05:05:00,
2013-08-08 01:11:00,70.8,68.7,29.94,SSW,202,0.0,0.0,93,0.00,,,0.00,Wunderground v.1.15,2013-08-08 05:11:00,
2013-08-08 01:16:00,70.8,68.7,29.94,SSW,202,0.0,0.0,93,0.00,,,0.00,Wunderground v.1.15,2013-08-08 05:16:00,
2013-08-08 01:22:00,70.8,68.7,29.94,South,186,0.0,0.0,93,0.00,,,0.00,Wunderground v.1.15,2013-08-08 05:22:00,
2013-08-08 01:28:00,70.8,68.7,29.94,SSW,192,0.0,0.0,93,0.00,,,0.00,Wunderground v.1.15,2013-08-08 05:28:00,
2013-08-08 01:37:00,70.8,68.7,29.93,SSW,193,0.0,0.0,93,0.00,,,0.00,Wunderground v.1.15,2013-08-08 05:37:00,
2013-08-08 01:44:00,70.8,68.7,29.92,SSW,200,0.0,0.0,93,0.00,,,0.00,Wunderground v.1.15,2013-08-08 05:44:00,
2013-08-08 01:50:00,70.8,68.7,29.92,SSW,200,0.0,0.0,93,0.00,,,0.00,Wunderground v.1.15,2013-08-08 05:50:00,
2013-08-08 01:58:00,70.6,68.5,29.92,SSW,192,0.0,0.0,93,0.00,,,0.00,Wunderground v.1.15,2013-08-08 05:58:00,
2013-08-08 02:04:00,70.6,68.5,29.92,SSW,202,0.0,0.0,93,0.00,,,0.00,Wunderground v.1.15,2013-08-08 06:04:00,
2013-08-08 02:10:00,70.6,68.5,29.92,SSW,200,0.0,0.0,93,0.00,,,0.00,Wunderground v.1.15,2013-08-08 06:10:00,
2013-08-08 02:15:00,70.4,68.3,29.92,SSW,203,0.0,0.0,93,0.00,,,0.00,Wunderground v.1.15,2013-08-08 06:15:00,
2013-08-08 02:21:00,70.4,68.3,29.92,SSW,203,0.0,0.0,93,0.00,,,0.00,Wunderground v.1.15,2013-08-08 06:21:00,
2013-08-08 02:27:00,70.4,68.3,29.92,South,179,0.0,0.0,93,0.00,,,0.00,Wunderground v.1.15,2013-08-08 06:27:00,
2013-08-08 02:32:00,70.3,68.2,29.92,SSW,196,0.0,0.0,93,0.00,,,0.00,Wunderground v.1.15,2013-08-08 06:32:00,
2013-08-08 02:37:00,70.3,68.2,29.92,SSW,200,0.0,0.0,93,0.00,,,0.00,Wunderground v.1.15,2013-08-08 06:37:00,
2013-08-08 02:47:00,70.1,68.0,29.92,SSW,198,0.0,0.0,93,0.00,,,0.00,Wunderground v.1.15,2013-08-08 06:47:00,
2013-08-08 02:57:00,69.8,67.7,29.92,SSW,206,0.0,0.0,93,0.00,,,0.00,Wunderground v.1.15,2013-08-08 06:57:00,
2013-08-08 03:05:00,69.6,67.5,29.91,SSW,199,0.0,0.0,93,0.00,,,0.00,Wunderground v.1.15,2013-08-08 07:05:00,
2013-08-08 03:11:00,69.4,67.3,29.91,SSW,206,0.0,0.0,93,0.00,,,0.00,Wunderground v.1.15,2013-08-08 07:11:00,
2013-08-08 03:17:00,69.3,67.2,29.92,SSW,205,0.0,0.0,93,0.00,,,0.00,Wunderground v.1.15,2013-08-08 07:17:00,
2013-08-08 03:25:00,69.1,67.0,29.92,SSW,205,0.0,0.0,93,0.00,,,0.00,Wunderground v.1.15,2013-08-08 07:25:00,
2013-08-08 03:30:00,69.1,67.0,29.92,SSW,198,0.0,0.0,93,0.00,,,0.00,Wunderground v.1.15,2013-08-08 07:30:00,
2013-08-08 03:36:00,69.1,67.0,29.92,SSW,203,0.0,0.0,93,0.00,,,0.00,Wunderground v.1.15,2013-08-08 07:36:00,
2013-08-08 03:41:00,69.1,67.0,29.92,SSW,206,0.0,0.0,93,0.00,,,0.00,Wunderground v.1.15,2013-08-08 07:41:00,
2013-08-08 03:50:00,68.9,66.8,29.92,SSW,199,0.0,0.0,93,0.00,,,0.00,Wunderground v.1.15,2013-08-08 07:50:00,
2013-08-08 03:57:00,68.9,66.8,29.92,SSW,200,0.0,0.0,93,0.00,,,0.00,Wunderground v.1.15,2013-08-08 07:57:00,
2013-08-08 04:05:00,68.8,66.7,29.91,SSW,198,0.0,0.0,93,0.00,,,0.00,Wunderground v.1.15,2013-08-08 08:05:00,
2013-08-08 04:11:00,68.6,66.5,29.91,SSW,196,0.0,0.0,93,0.00,,,0.00,Wunderground v.1.15,2013-08-08 08:11:00,
2013-08-08 04:16:00,68.6,66.5,29.91,SSW,195,0.0,0.0,93,0.00,,,0.00,Wunderground v.1.15,2013-08-08 08:16:00,
2013-08-08 04:21:00,68.4,66.3,29.91,SSW,206,0.0,0.0,93,0.00,,,0.00,Wunderground v.1.15,2013-08-08 08:21:00,
2013-08-08 04:27:00,68.4,66.3,29.91,SSW,199,0.0,0.0,93,0.00,,,0.00,Wunderground v.1.15,2013-08-08 08:27:00,
2013-08-08 04:32:00,68.4,66.3,29.90,SSW,192,0.0,0.0,93,0.00,,,0.00,Wunderground v.1.15,2013-08-08 08:32:00,
2013-08-08 04:37:00,68.3,66.2,29.90,SSW,195,0.0,0.0,93,0.00,,,0.00,Wunderground v.1.15,2013-08-08 08:37:00,
2013-08-08 04:42:00,68.3,66.2,29.90,SSW,202,0.0,0.0,93,0.00,,,0.00,Wunderground v.1.15,2013-08-08 08:42:00,
2013-08-08 04:48:00,68.1,66.0,29.90,SSW,206,0.0,0.0,93,0.00,,,0.00,Wunderground v.1.15,2013-08-08 08:48:00,
2013-08-08 04:54:00,68.1,66.0,29.90,SSW,206,0.0,0.0,93,0.00,,,0.00,Wunderground v.1.15,2013-08-08 08:54:00,
2013-08-08 05:00:00,67.9,65.8,29.90,SSW,205,0.0,0.0,93,0.00,,,0.00,Wunderground v.1.15,2013-08-08 09:00:00,
2013-08-08 05:05:00,67.9,65.8,29.90,SSW,196,0.0,0.0,93,0.00,,,0.00,Wunderground v.1.15,2013-08-08 09:05:00,
2013-08-08 05:11:00,67.9,65.8,29.90,SSW,198,0.0,0.0,93,0.00,,,0.00,Wunderground v.1.15,2013-08-08 09:11:00,
2013-08-08 05:16:00,67.8,65.7,29.91,SSW,195,0.0,0.0,93,0.00,,,0.00,Wunderground v.1.15,2013-08-08 09:16:00,
2013-08-08 05:21:00,67.8,65.7,29.91,SSW,195,0.0,0.0,93,0.00,,,0.00,Wunderground v.1.15,2013-08-08 09:21:00,
2013-08-08 05:27:00,67.9,65.8,29.91,SSW,196,0.0,0.0,93,0.00,,,0.00,Wunderground v.1.15,2013-08-08 09:27:00,
2013-08-08 05:32:00,67.9,65.8,29.92,SSW,193,0.0,0.0,93,0.00,,,0.00,Wunderground v.1.15,2013-08-08 09:32:00,
2013-08-08 05:37:00,68.1,66.0,29.92,South,189,0.0,0.0,93,0.00,,,0.00,Wunderground v.1.15,2013-08-08 09:37:00,
2013-08-08 05:46:00,68.1,66.0,29.92,SSW,198,0.0,0.0,93,0.00,,,0.00,Wunderground v.1.15,2013-08-08 09:46:00,
2013-08-08 05:51:00,68.1,66.0,29.92,South,189,0.0,0.0,93,0.00,,,0.00,Wunderground v.1.15,2013-08-08 09:51:00,
2013-08-08 05:59:00,68.3,66.2,29.92,SSW,203,0.0,0.0,93,0.00,,,0.00,Wunderground v.1.15,2013-08-08 09:59:00,
2013-08-08 06:07:00,68.3,66.2,29.92,SSW,193,0.0,0.0,93,0.00,,,0.00,Wunderground v.1.15,2013-08-08 10:07:00,
2013-08-08 06:12:00,68.3,66.2,29.92,SSW,196,0.0,0.0,93,0.00,,,0.00,Wunderground v.1.15,2013-08-08 10:12:00,
2013-08-08 06:18:00,68.3,66.2,29.92,SSW,199,0.0,0.0,93,0.00,,,0.00,Wunderground v.1.15,2013-08-08 10:18:00,
2013-08-08 06:27:00,68.3,66.2,29.92,South,189,0.0,0.0,93,0.00,,,0.00,Wunderground v.1.15,2013-08-08 10:27:00,
2013-08-08 06:32:00,68.3,66.2,29.92,SSW,200,0.0,0.0,93,0.00,,,0.00,Wunderground v.1.15,2013-08-08 10:32:00,
2013-08-08 06:37:00,68.3,66.2,29.92,SSW,195,0.0,0.0,93,0.00,,,0.00,Wunderground v.1.15,2013-08-08 10:37:00,
2013-08-08 06:44:00,68.3,66.2,29.92,SSW,206,0.0,0.0,93,0.00,,,0.00,Wunderground v.1.15,2013-08-08 10:44:00,
2013-08-08 06:50:00,68.6,66.8,29.92,SSW,193,0.0,0.0,94,0.00,,,0.00,Wunderground v.1.15,2013-08-08 10:50:00,
2013-08-08 06:56:00,68.8,67.0,29.92,SSW,198,0.0,0.0,94,0.00,,,0.00,Wunderground v.1.15,2013-08-08 10:56:00,
2013-08-08 07:02:00,68.9,67.1,29.92,SSW,193,0.0,0.0,94,0.00,,,0.00,Wunderground v.1.15,2013-08-08 11:02:00,
2013-08-08 07:08:00,69.1,67.3,29.92,SSW,202,0.0,0.0,94,0.00,,,0.00,Wunderground v.1.15,2013-08-08 11:08:00,
2013-08-08 07:17:00,69.4,67.6,29.92,SSW,192,0.0,0.0,94,0.00,,,0.00,Wunderground v.1.15,2013-08-08 11:17:00,
2013-08-08 07:24:00,69.6,67.8,29.92,SSW,200,0.0,0.0,94,0.00,,,0.00,Wunderground v.1.15,2013-08-08 11:24:00,
2013-08-08 07:30:00,69.9,68.1,29.92,SSW,206,0.0,0.0,94,0.00,,,0.00,Wunderground v.1.15,2013-08-08 11:30:00,
2013-08-08 07:37:00,70.1,68.3,29.92,SSW,206,0.0,0.0,94,0.00,,,0.00,Wunderground v.1.15,2013-08-08 11:37:00,
2013-08-08 07:46:00,70.3,68.5,29.93,SSW,205,0.0,0.0,94,0.00,,,0.00,Wunderground v.1.15,2013-08-08 11:46:00,
2013-08-08 07:52:00,70.4,68.6,29.93,SSW,202,0.0,0.0,94,0.00,,,0.00,Wunderground v.1.15,2013-08-08 11:52:00,
2013-08-08 07:57:00,70.6,68.8,29.93,SSW,202,0.0,0.0,94,0.00,,,0.00,Wunderground v.1.15,2013-08-08 11:57:00,
2013-08-08 08:05:00,70.8,69.0,29.93,SSW,203,0.0,0.0,94,0.00,,,0.00,Wunderground v.1.15,2013-08-08 12:05:00,
2013-08-08 08:10:00,70.9,69.1,29.93,SSW,205,0.0,0.0,94,0.00,,,0.00,Wunderground v.1.15,2013-08-08 12:10:00,
2013-08-08 08:16:00,71.3,69.5,29.94,SSW,205,0.0,0.0,94,0.00,,,0.00,Wunderground v.1.15,2013-08-08 12:16:00,
2013-08-08 08:21:00,71.5,69.7,29.94,SSW,206,0.0,0.0,94,0.00,,,0.00,Wunderground v.1.15,2013-08-08 12:21:00,
2013-08-08 08:27:00,71.8,70.0,29.94,SSW,205,0.0,0.0,94,0.00,,,0.00,Wunderground v.1.15,2013-08-08 12:27:00,
2013-08-08 08:37:00,72.3,70.5,29.93,SSW,206,0.0,0.0,94,0.00,,,0.00,Wunderground v.1.15,2013-08-08 12:37:00,
2013-08-08 08:45:00,72.5,70.7,29.93,SSW,206,0.0,0.0,94,0.00,,,0.00,Wunderground v.1.15,2013-08-08 12:45:00,
2013-08-08 08:50:00,72.5,70.7,29.93,SSW,205,0.0,0.0,94,0.00,,,0.00,Wunderground v.1.15,2013-08-08 12:50:00,
2013-08-08 08:56:00,72.7,70.9,29.93,SSW,205,0.0,0.0,94,0.00,,,0.00,Wunderground v.1.15,2013-08-08 12:56:00,
2013-08-08 09:02:00,73.0,71.2,29.93,SSW,205,0.0,0.0,94,0.00,,,0.00,Wunderground v.1.15,2013-08-08 13:02:00,
2013-08-08 09:08:00,73.2,71.4,29.93,SSW,205,0.0,0.0,94,0.00,,,0.00,Wunderground v.1.15,2013-08-08 13:08:00,
2013-08-08 09:16:00,73.3,71.5,29.93,SSW,205,0.0,0.0,94,0.00,,,0.00,Wunderground v.1.15,2013-08-08 13:16:00,
2013-08-08 09:22:00,73.5,71.7,29.93,SSW,205,0.0,0.0,94,0.00,,,0.00,Wunderground v.1.15,2013-08-08 13:22:00,
2013-08-08 09:27:00,73.5,71.7,29.93,SSW,205,0.0,0.0,94,0.00,,,0.00,Wunderground v.1.15,2013-08-08 13:27:00,
2013-08-08 09:32:00,73.7,71.9,29.93,SSW,205,0.0,0.0,94,0.00,,,0.00,Wunderground v.1.15,2013-08-08 13:32:00,
2013-08-08 09:38:00,73.9,71.7,29.93,SSW,205,0.0,0.0,93,0.00,,,0.00,Wunderground v.1.15,2013-08-08 13:38:00,
2013-08-08 09:44:00,73.9,71.7,29.93,SSW,205,0.0,0.0,93,0.00,,,0.00,Wunderground v.1.15,2013-08-08 13:44:00,
2013-08-08 09:50:00,74.0,71.8,29.93,SSW,205,0.0,0.0,93,0.00,,,0.00,Wunderground v.1.15,2013-08-08 13:50:00,
2013-08-08 09:56:00,74.2,72.0,29.93,SSW,205,0.0,0.0,93,0.00,,,0.00,Wunderground v.1.15,2013-08-08 13:56:00,
2013-08-08 10:02:00,74.0,71.8,29.93,SSW,205,0.0,0.0,93,0.00,,,0.00,Wunderground v.1.15,2013-08-08 14:02:00,
2013-08-08 10:08:00,74.2,72.0,29.93,SSW,205,0.0,0.0,93,0.00,,,0.00,Wunderground v.1.15,2013-08-08 14:08:00,
2013-08-08 10:15:00,74.0,71.8,29.93,SSW,205,0.0,0.0,93,0.00,,,0.00,Wunderground v.1.15,2013-08-08 14:15:00,
2013-08-08 10:20:00,74.0,71.8,29.93,SSW,205,0.0,0.0,93,0.00,,,0.00,Wunderground v.1.15,2013-08-08 14:20:00,
2013-08-08 10:26:00,73.7,71.5,29.93,SSW,205,0.0,0.0,93,0.00,,,0.00,Wunderground v.1.15,2013-08-08 14:26:00,
2013-08-08 10:32:00,73.9,71.7,29.94,SSW,205,0.0,0.0,93,0.00,,,0.00,Wunderground v.1.15,2013-08-08 14:32:00,
2013-08-08 10:41:00,74.0,71.8,29.94,SSW,203,0.0,0.0,93,0.00,,,0.00,Wunderground v.1.15,2013-08-08 14:41:00,
2013-08-08 10:47:00,74.2,72.0,29.94,SSW,205,0.0,0.0,93,0.00,,,0.00,Wunderground v.1.15,2013-08-08 14:47:00,
2013-08-08 10:54:00,74.2,72.0,29.94,SSW,205,0.0,0.0,93,0.00,,,0.00,Wunderground v.1.15,2013-08-08 14:54:00,
2013-08-08 11:00:00,74.6,72.4,29.93,SSW,205,0.0,0.0,93,0.00,,,0.00,Wunderground v.1.15,2013-08-08 15:00:00,
2013-08-08 11:07:00,75.3,73.1,29.93,SSW,205,0.0,0.0,93,0.00,,,0.00,Wunderground v.1.15,2013-08-08 15:07:00,
2013-08-08 11:12:00,75.4,72.9,29.93,SSW,205,0.0,0.0,92,0.00,,,0.00,Wunderground v.1.15,2013-08-08 15:12:00,
2013-08-08 11:17:00,75.8,73.3,29.93,SSW,203,0.0,0.0,92,0.00,,,0.00,Wunderground v.1.15,2013-08-08 15:17:00,
2013-08-08 11:24:00,76.1,73.0,29.93,West,275,0.0,0.0,90,0.00,,,0.00,Wunderground v.1.15,2013-08-08 15:24:00,
2013-08-08 11:30:00,76.3,72.5,29.93,West,275,0.0,0.0,88,0.00,,,0.00,Wunderground v.1.15,2013-08-08 15:30:00,
2013-08-08 11:37:00,76.7,72.2,29.93,West,275,0.0,0.0,86,0.00,,,0.00,Wunderground v.1.15,2013-08-08 15:37:00,
2013-08-08 11:44:00,77.2,72.3,29.93,West,271,0.0,0.0,85,0.00,,,0.00,Wunderground v.1.15,2013-08-08 15:44:00,
2013-08-08 11:50:00,77.7,72.5,29.93,SSW,208,0.0,0.0,84,0.00,,,0.00,Wunderground v.1.15,2013-08-08 15:50:00,
2013-08-08 11:57:00,78.5,72.5,29.93,WSW,247,0.0,0.0,82,0.00,,,0.00,Wunderground v.1.15,2013-08-08 15:57:00,
2013-08-08 12:04:00,78.5,71.8,29.93,West,278,0.0,0.0,80,0.00,,,0.00,Wunderground v.1.15,2013-08-08 16:04:00,
2013-08-08 12:10:00,79.0,72.7,29.93,SSW,200,0.0,0.0,81,0.00,,,0.00,Wunderground v.1.15,2013-08-08 16:10:00,
2013-08-08 12:18:00,79.4,71.9,29.93,WSW,258,0.0,0.0,78,0.00,,,0.00,Wunderground v.1.15,2013-08-08 16:18:00,
2013-08-08 12:26:00,79.6,71.8,29.93,WNW,289,0.0,0.0,77,0.00,,,0.00,Wunderground v.1.15,2013-08-08 16:26:00,
2013-08-08 12:32:00,79.8,72.3,29.93,West,267,0.0,0.0,78,0.00,,,0.00,Wunderground v.1.15,2013-08-08 16:32:00,
2013-08-08 12:38:00,79.8,71.6,29.93,SSW,208,0.0,0.0,76,0.00,,,0.00,Wunderground v.1.15,2013-08-08 16:38:00,
2013-08-08 12:45:00,79.9,71.7,29.93,North,7,0.0,1.0,76,0.00,,,0.00,Wunderground v.1.15,2013-08-08 16:45:00,
2013-08-08 12:51:00,79.8,71.2,29.93,NW,320,0.0,0.0,75,0.00,,,0.00,Wunderground v.1.15,2013-08-08 16:51:00,
2013-08-08 12:56:00,80.1,71.8,29.93,WNW,285,0.0,0.0,76,0.00,,,0.00,Wunderground v.1.15,2013-08-08 16:56:00,
2013-08-08 13:02:00,80.3,72.0,29.93,WSW,253,0.0,2.0,76,0.00,,,0.00,Wunderground v.1.15,2013-08-08 17:02:00,
2013-08-08 13:07:00,80.3,71.6,29.93,NW,325,0.0,2.0,75,0.00,,,0.00,Wunderground v.1.15,2013-08-08 17:07:00,
2013-08-08 13:17:00,80.3,71.3,29.93,SW,233,0.0,0.0,74,0.00,,,0.00,Wunderground v.1.15,2013-08-08 17:17:00,
2013-08-08 13:25:00,80.3,71.6,29.93,ENE,58,0.0,0.0,75,0.00,,,0.00,Wunderground v.1.15,2013-08-08 17:25:00,
2013-08-08 13:31:00,80.1,71.5,29.92,NW,306,0.0,0.0,75,0.00,,,0.00,Wunderground v.1.15,2013-08-08 17:31:00,
2013-08-08 13:36:00,79.9,71.3,29.92,SW,232,0.0,0.0,75,0.00,,,0.00,Wunderground v.1.15,2013-08-08 17:36:00,
2013-08-08 13:42:00,79.9,71.7,29.92,NW,325,0.0,0.0,76,0.00,,,0.00,Wunderground v.1.15,2013-08-08 17:42:00,
2013-08-08 13:48:00,79.8,70.8,29.92,West,274,0.0,1.0,74,0.00,,,0.00,Wunderground v.1.15,2013-08-08 17:48:00,
2013-08-08 13:56:00,79.8,70.8,29.92,WSW,246,0.0,0.0,74,0.00,,,0.00,Wunderground v.1.15,2013-08-08 17:56:00,
2013-08-08 14:02:00,79.9,70.9,29.93,North,359,0.0,0.0,74,0.00,,,0.00,Wunderground v.1.15,2013-08-08 18:02:00,
2013-08-08 14:07:00,80.1,71.5,29.93,WSW,258,0.0,0.0,75,0.00,,,0.00,Wunderground v.1.15,2013-08-08 18:07:00,
2013-08-08 14:15:00,80.3,71.6,29.93,SSW,206,0.0,0.0,75,0.00,,,0.00,Wunderground v.1.15,2013-08-08 18:15:00,
2013-08-08 14:21:00,80.5,71.4,29.93,WSW,244,0.0,0.0,74,0.00,,,0.00,Wunderground v.1.15,2013-08-08 18:21:00,
2013-08-08 14:26:00,80.7,71.6,29.93,SW,234,0.0,0.0,74,0.00,,,0.00,Wunderground v.1.15,2013-08-08 18:26:00,
2013-08-08 14:32:00,81.1,71.6,29.92,SW,233,0.0,0.0,73,0.00,,,0.00,Wunderground v.1.15,2013-08-08 18:32:00,
2013-08-08 14:38:00,81.2,70.9,29.92,SW,217,0.0,0.0,71,0.00,,,0.00,Wunderground v.1.15,2013-08-08 18:38:00,
2013-08-08 14:48:00,81.2,71.3,29.92,SSW,192,0.0,2.0,72,0.00,,,0.00,Wunderground v.1.15,2013-08-08 18:48:00,
2013-08-08 14:55:00,81.2,71.3,29.92,WSW,248,0.0,2.0,72,0.00,,,0.00,Wunderground v.1.15,2013-08-08 18:55:00,
2013-08-08 15:00:00,81.4,71.9,29.91,SSW,199,0.0,0.0,73,0.00,,,0.00,Wunderground v.1.15,2013-08-08 19:00:00,
2013-08-08 15:07:00,81.1,71.2,29.91,WSW,243,0.0,2.0,72,0.00,,,0.00,Wunderground v.1.15,2013-08-08 19:07:00,
2013-08-08 15:20:00,80.9,71.8,29.91,West,280,0.0,0.0,74,0.00,,,0.00,Wunderground v.1.15,2013-08-08 19:20:00,
2013-08-08 15:27:00,81.2,72.1,29.91,West,281,0.0,0.0,74,0.00,,,0.00,Wunderground v.1.15,2013-08-08 19:27:00,
2013-08-08 15:35:00,81.4,71.9,29.90,WSW,243,0.0,0.0,73,0.00,,,0.00,Wunderground v.1.15,2013-08-08 19:35:00,
2013-08-08 15:40:00,81.2,71.3,29.90,West,281,0.0,0.0,72,0.00,,,0.00,Wunderground v.1.15,2013-08-08 19:40:00,
2013-08-08 15:46:00,81.2,72.1,29.90,SW,219,0.0,0.0,74,0.00,,,0.00,Wunderground v.1.15,2013-08-08 19:46:00,
2013-08-08 15:52:00,81.1,71.6,29.90,WNW,282,0.0,0.0,73,0.00,,,0.00,Wunderground v.1.15,2013-08-08 19:52:00,
2013-08-08 15:58:00,80.9,71.4,29.90,NNW,342,0.0,0.0,73,0.00,,,0.00,Wunderground v.1.15,2013-08-08 19:58:00,
2013-08-08 16:07:00,80.7,72.4,29.90,North,0,0.0,2.0,76,0.00,,,0.01,Wunderground v.1.15,2013-08-08 20:07:00,
2013-08-08 16:17:00,78.8,72.5,29.90,North,10,1.0,3.0,81,0.27,,,0.07,Wunderground v.1.15,2013-08-08 20:17:00,
2013-08-08 16:24:00,79.0,73.7,29.90,North,10,0.0,0.0,84,0.06,,,0.07,Wunderground v.1.15,2013-08-08 20:24:00,
2013-08-08 16:30:00,79.2,74.6,29.89,North,10,0.0,0.0,86,0.04,,,0.07,Wunderground v.1.15,2013-08-08 20:30:00,
2013-08-08 16:38:00,79.2,74.3,29.89,North,10,0.0,0.0,85,0.00,,,0.07,Wunderground v.1.15,2013-08-08 20:38:00,
2013-08-08 16:44:00,78.6,73.7,29.89,North,10,0.0,0.0,85,0.00,,,0.07,Wunderground v.1.15,2013-08-08 20:44:00,
2013-08-08 16:50:00,78.3,73.4,29.89,NW,305,0.0,0.0,85,0.00,,,0.07,Wunderground v.1.15,2013-08-08 20:50:00,
2013-08-08 16:57:00,78.1,73.6,29.89,West,277,0.0,0.0,86,0.00,,,0.07,Wunderground v.1.15,2013-08-08 20:57:00,
2013-08-08 17:07:00,77.7,72.8,29.88,SW,220,0.0,0.0,85,0.00,,,0.07,Wunderground v.1.15,2013-08-08 21:07:00,
2013-08-08 17:17:00,77.4,71.8,29.89,West,264,0.0,0.0,83,0.00,,,0.07,Wunderground v.1.15,2013-08-08 21:17:00,
2013-08-08 17:25:00,77.2,72.0,29.89,North,349,0.0,0.0,84,0.00,,,0.07,Wunderground v.1.15,2013-08-08 21:25:00,
2013-08-08 17:31:00,77.2,72.0,29.89,North,349,0.0,0.0,84,0.00,,,0.07,Wunderground v.1.15,2013-08-08 21:31:00,
2013-08-08 17:39:00,77.2,72.0,29.89,West,263,0.0,0.0,84,0.00,,,0.07,Wunderground v.1.15,2013-08-08 21:39:00,
2013-08-08 17:45:00,77.4,72.2,29.89,WNW,284,0.0,0.0,84,0.00,,,0.07,Wunderground v.1.15,2013-08-08 21:45:00,
2013-08-08 17:50:00,77.4,71.5,29.89,West,275,0.0,0.0,82,0.00,,,0.07,Wunderground v.1.15,2013-08-08 21:50:00,
2013-08-08 17:57:00,77.7,71.0,29.89,West,275,0.0,0.0,80,0.00,,,0.07,Wunderground v.1.15,2013-08-08 21:57:00,
2013-08-08 18:05:00,77.9,71.6,29.89,WNW,285,0.0,0.0,81,0.00,,,0.07,Wunderground v.1.15,2013-08-08 22:05:00,
2013-08-08 18:11:00,78.1,71.8,29.89,SW,236,0.0,0.0,81,0.00,,,0.07,Wunderground v.1.15,2013-08-08 22:11:00,
2013-08-08 18:16:00,78.3,71.6,29.89,SW,215,0.0,0.0,80,0.00,,,0.07,Wunderground v.1.15,2013-08-08 22:16:00,
2013-08-08 18:21:00,78.3,71.2,29.89,SSW,205,0.0,0.0,79,0.00,,,0.07,Wunderground v.1.15,2013-08-08 22:21:00,
2013-08-08 18:27:00,78.5,71.4,29.89,WSW,243,0.0,0.0,79,0.00,,,0.07,Wunderground v.1.15,2013-08-08 22:27:00,
2013-08-08 18:39:00,78.3,71.2,29.89,West,274,0.0,0.0,79,0.00,,,0.07,Wunderground v.1.15,2013-08-08 22:39:00,
2013-08-08 18:45:00,78.1,71.1,29.89,NW,304,0.0,0.0,79,0.00,,,0.07,Wunderground v.1.15,2013-08-08 22:45:00,
2013-08-08 18:51:00,77.9,71.2,29.89,SW,226,0.0,0.0,80,0.00,,,0.07,Wunderground v.1.15,2013-08-08 22:51:00,
2013-08-08 18:56:00,77.7,71.0,29.89,WNW,288,0.0,0.0,80,0.00,,,0.07,Wunderground v.1.15,2013-08-08 22:56:00,
2013-08-08 19:02:00,77.7,71.0,29.89,WNW,291,0.0,0.0,80,0.00,,,0.07,Wunderground v.1.15,2013-08-08 23:02:00,
2013-08-08 19:08:00,77.6,70.9,29.89,SW,226,0.0,0.0,80,0.00,,,0.07,Wunderground v.1.15,2013-08-08 23:08:00,
2013-08-08 19:15:00,77.4,70.7,29.89,WSW,258,0.0,0.0,80,0.00,,,0.07,Wunderground v.1.15,2013-08-08 23:15:00,
2013-08-08 19:21:00,77.4,70.7,29.89,South,179,0.0,0.0,80,0.00,,,0.07,Wunderground v.1.15,2013-08-08 23:21:00,
2013-08-08 19:26:00,77.2,70.9,29.89,West,275,0.0,0.0,81,0.00,,,0.07,Wunderground v.1.15,2013-08-08 23:26:00,
2013-08-08 19:32:00,77.2,70.9,29.89,West,264,0.0,0.0,81,0.00,,,0.07,Wunderground v.1.15,2013-08-08 23:32:00,
2013-08-08 19:37:00,77.0,71.1,29.89,West,270,0.0,0.0,82,0.00,,,0.08,Wunderground v.1.15,2013-08-08 23:37:00,
2013-08-08 19:42:00,77.0,71.1,29.89,West,270,0.0,0.0,82,0.11,,,0.09,Wunderground v.1.15,2013-08-08 23:42:00,
2013-08-08 19:49:00,76.8,71.2,29.89,West,270,0.0,0.0,83,0.13,,,0.11,Wunderground v.1.15,2013-08-08 23:49:00,
2013-08-08 20:02:00,76.1,71.3,29.89,WNW,298,0.0,0.0,85,0.10,,,0.13,Wunderground v.1.15,2013-08-09 00:02:00,
2013-08-08 20:08:00,75.8,71.0,29.89,WNW,298,0.0,0.0,85,0.08,,,0.13,Wunderground v.1.15,2013-08-09 00:08:00,
2013-08-08 20:14:00,75.6,71.1,29.89,NW,316,0.0,0.0,86,0.04,,,0.13,Wunderground v.1.15,2013-08-09 00:14:00,
2013-08-08 20:20:00,75.4,71.3,29.89,NW,308,0.0,0.0,87,0.00,,,0.13,Wunderground v.1.15,2013-08-09 00:20:00,
2013-08-08 20:27:00,75.1,71.0,29.89,WSW,258,0.0,0.0,87,0.00,,,0.13,Wunderground v.1.15,2013-08-09 00:27:00,
2013-08-08 20:36:00,74.9,71.1,29.89,WSW,257,0.0,0.0,88,0.00,,,0.13,Wunderground v.1.15,2013-08-09 00:36:00,
2013-08-08 20:47:00,74.7,70.9,29.90,WSW,258,0.0,0.0,88,0.00,,,0.13,Wunderground v.1.15,2013-08-09 00:47:00,
2013-08-08 20:57:00,74.7,71.2,29.90,WSW,257,0.0,0.0,89,0.00,,,0.13,Wunderground v.1.15,2013-08-09 00:57:00,
2013-08-08 21:05:00,74.6,71.1,29.90,WSW,258,0.0,0.0,89,0.00,,,0.14,Wunderground v.1.15,2013-08-09 01:05:00,
2013-08-08 21:11:00,74.6,71.1,29.90,WSW,257,0.0,0.0,89,0.00,,,0.14,Wunderground v.1.15,2013-08-09 01:11:00,
2013-08-08 21:18:00,74.6,71.1,29.90,WSW,258,0.0,0.0,89,0.00,,,0.14,Wunderground v.1.15,2013-08-09 01:18:00,
2013-08-08 21:24:00,74.6,71.5,29.90,WSW,256,0.0,0.0,90,0.00,,,0.14,Wunderground v.1.15,2013-08-09 01:24:00,
2013-08-08 21:30:00,74.6,71.5,29.90,WSW,254,0.0,0.0,90,0.00,,,0.14,Wunderground v.1.15,2013-08-09 01:30:00,
2013-08-08 21:38:00,74.4,71.3,29.90,WSW,247,0.0,0.0,90,0.00,,,0.14,Wunderground v.1.15,2013-08-09 01:38:00,
2013-08-08 21:46:00,74.4,71.3,29.90,WSW,253,0.0,0.0,90,0.00,,,0.14,Wunderground v.1.15,2013-08-09 01:46:00,
2013-08-08 21:52:00,74.2,71.1,29.90,WSW,248,0.0,0.0,90,0.00,,,0.14,Wunderground v.1.15,2013-08-09 01:52:00,
2013-08-08 21:58:00,74.2,71.1,29.90,WSW,253,0.0,0.0,90,0.00,,,0.14,Wunderground v.1.15,2013-08-09 01:58:00,
2013-08-08 22:06:00,74.0,70.9,29.90,WSW,241,0.0,0.0,90,0.00,,,0.14,Wunderground v.1.15,2013-08-09 02:06:00,
2013-08-08 22:11:00,74.0,70.9,29.90,WSW,258,0.0,0.0,90,0.00,,,0.14,Wunderground v.1.15,2013-08-09 02:11:00,
2013-08-08 22:18:00,74.0,70.9,29.90,WSW,256,0.0,0.0,90,0.00,,,0.14,Wunderground v.1.15,2013-08-09 02:18:00,
2013-08-08 22:26:00,74.0,70.9,29.90,West,260,0.0,0.0,90,0.00,,,0.14,Wunderground v.1.15,2013-08-09 02:26:00,
2013-08-08 22:31:00,73.9,71.1,29.90,WSW,258,0.0,0.0,91,0.00,,,0.14,Wunderground v.1.15,2013-08-09 02:31:00,
2013-08-08 22:37:00,73.9,71.1,29.90,WSW,256,0.0,0.0,91,0.00,,,0.14,Wunderground v.1.15,2013-08-09 02:37:00,
2013-08-08 22:47:00,73.9,71.1,29.90,WSW,248,0.0,0.0,91,0.00,,,0.14,Wunderground v.1.15,2013-08-09 02:47:00,
2013-08-08 22:57:00,73.9,71.1,29.90,WSW,250,0.0,0.0,91,0.00,,,0.14,Wunderground v.1.15,2013-08-09 02:57:00,
2013-08-08 23:02:00,73.7,70.9,29.89,WSW,256,0.0,0.0,91,0.00,,,0.14,Wunderground v.1.15,2013-08-09 03:02:00,
2013-08-08 23:09:00,73.7,70.9,29.89,WSW,254,0.0,0.0,91,0.00,,,0.14,Wunderground v.1.15,2013-08-09 03:09:00,
2013-08-08 23:17:00,73.7,70.9,29.88,WSW,253,0.0,0.0,91,0.00,,,0.14,Wunderground v.1.15,2013-08-09 03:17:00,
2013-08-08 23:22:00,73.7,70.9,29.88,WSW,254,0.0,0.0,91,0.00,,,0.14,Wunderground v.1.15,2013-08-09 03:22:00,
2013-08-08 23:27:00,73.7,70.9,29.88,WSW,253,0.0,0.0,91,0.00,,,0.14,Wunderground v.1.15,2013-08-09 03:27:00,
2013-08-08 23:35:00,73.5,70.7,29.88,WSW,254,0.0,0.0,91,0.00,,,0.14,Wunderground v.1.15,2013-08-09 03:35:00,
2013-08-08 23:41:00,73.5,70.7,29.88,WSW,256,0.0,0.0,91,0.00,,,0.14,Wunderground v.1.15,2013-08-09 03:41:00,
2013-08-08 23:48:00,73.5,70.7,29.88,WSW,254,0.0,0.0,91,0.00,,,0.14,Wunderground v.1.15,2013-08-09 03:48:00,
2013-08-08 23:55:00,73.3,70.5,29.88,WSW,253,0.0,0.0,91,0.00,,,0.14,Wunderground v.1.15,2013-08-09 03:55:00,